FW9558 Weather Reports


Display with metric or nautical units.
time (UTC)temp
F
wind
direction
speed
MPH
gust
MPH
rain 1hr
in
rain 24hr
in
rain mn
in
humidity
%
barometer
mb
20260901105020 72 0 0.0 2.0 0.00 0.04 0.00 67 1023.6
20260901103054 71 0 0.0 3.0 0.00 0.04 0.00 68 1023.6
20260901101545 70 0 0.0 2.0 0.00 0.04 0.00 70 1023.8
20260901100045 70 0 0.0 0.0 0.00 0.04 0.00 70 1023.6
20260901094554 69 0 0.0 0.0 0.00 0.05 0.00 76 1023.7
20260901093050 67 0 0.0 0.0 0.00 0.05 0.00 80 1023.6
20260901091547 65 0 0.0 0.0 0.00 0.05 0.00 84 1023.6
20260901090051 64 0 0.0 0.0 0.00 0.05 0.00 88 1023.5
20260901084545 63 0 0.0 0.0 0.00 0.15 0.00 92 1023.5
20260901083046 62 0 0.0 0.0 0.00 0.15 0.00 94 1023.4
20260901081544 61 0 0.0 2.0 0.00 0.15 0.00 95 1023.3
20260901080055 60 15 0.0 1.0 0.00 0.15 0.00 95 1023.2
20260901074548 59 0 0.0 0.0 0.00 0.15 0.00 96 1023.1
20260901073045 58 0 0.0 0.0 0.00 0.15 0.00 96 1023.1
20260901071550 57 0 0.0 0.0 0.00 0.15 0.00 95 1023.1
20260901070048 56 0 0.0 0.0 0.00 0.15 0.00 95 1023.3
20260901064543 56 0 0.0 0.0 0.00 0.15 0.00 95 1023.2
20260901063050 55 0 0.0 0.0 0.00 0.15 0.00 95 1023.2
20260901061621 54 0 0.0 0.0 0.00 0.15 0.00 95 1023.0
20260901061546 54 0 0.0 0.0 0.00 0.15 0.00 95 1023.0
20260901060046 54 0 0.0 0.0 0.00 0.15 0.00 95 1022.8
20260901054543 53 0 0.0 0.0 0.00 0.15 0.00 95 1022.9
20260901053057 53 0 0.0 0.0 0.00 0.15 0.00 94 1022.9
20260901051551 53 0 0.0 0.0 0.00 0.15 0.00 94 1022.9
20260901050045 54 0 0.0 0.0 0.00 0.15 0.00 94 1022.7
20260901044548 54 0 0.0 0.0 0.00 0.15 0.00 94 1022.7
20260901043049 54 0 0.0 0.0 0.00 0.15 0.00 94 1022.7
20260901041550 55 0 0.0 0.0 0.00 0.15 0.00 94 1022.9
20260901040045 56 0 0.0 0.0 0.00 0.15 0.00 94 1022.9
20260901034543 56 0 0.0 0.0 0.00 0.15 0.00 94 1022.8
20260901033044 56 0 0.0 0.0 0.00 0.15 0.00 94 1022.8
20260901031544 56 0 0.0 0.0 0.00 0.15 0.00 93 1022.8
20260901030043 56 0 0.0 0.0 0.00 0.15 0.00 93 1022.9
20260901024543 56 0 0.0 0.0 0.00 0.15 0.00 93 1022.9
20260901023050 56 0 0.0 0.0 0.00 0.15 0.00 93 1023.1
20260901021542 56 0 0.0 0.0 0.00 0.15 0.00 93 1023.0
20260901020043 56 0 0.0 0.0 0.00 0.15 0.00 92 1023.1
20260901014550 57 0 0.0 0.0 0.00 0.15 0.00 92 1023.2
20260901013050 57 0 0.0 0.0 0.00 0.15 0.00 92 1023.2
20260901011543 58 0 0.0 0.0 0.00 0.15 0.00 92 1023.3
20260901010046 58 0 0.0 0.0 0.00 0.15 0.00 92 1023.3
20260901004547 58 0 0.0 0.0 0.00 0.15 0.00 91 1023.2
20260901003043 58 0 0.0 0.0 0.00 0.15 0.00 91 1023.4
20260901001546 58 0 0.0 0.0 0.00 0.15 0.00 90 1023.4
20260901000045 59 0 0.0 0.0 0.00 0.15 0.00 89 1023.2
20260831234550 59 0 0.0 0.0 0.00 0.15 0.00 89 1023.3
20260831233047 60 0 0.0 0.0 0.00 0.15 0.00 88 1023.2
20260831231544 60 0 0.0 2.0 0.00 0.15 0.00 88 1023.3
20260831230044 60 269 0.0 4.0 0.00 0.15 0.00 88 1023.3
20260831224542 61 0 0.0 2.0 0.00 0.15 0.00 87 1023.2
20260831223053 61 0 0.0 0.0 0.00 0.15 0.00 87 1023.1
20260831221543 61 0 0.0 0.0 0.00 0.15 0.00 86 1023.2
20260831220046 62 0 0.0 3.0 0.00 0.15 0.00 85 1023.4
20260831214557 62 261 1.0 4.0 0.00 0.15 0.15 85 1023.2
20260831213043 63 0 1.0 6.0 0.00 0.15 0.15 85 1023.3
20260831211552 63 248 1.0 6.0 0.00 0.15 0.15 84 1023.2
20260831210046 63 266 0.0 3.0 0.00 0.15 0.15 84 1023.0
20260831204543 64 239 1.0 4.0 0.00 0.15 0.15 84 1023.0
20260831203041 64 225 1.0 3.0 0.00 0.15 0.15 83 1022.9
20260831201607 65 225 1.0 4.0 0.00 0.15 0.15 82 1022.8
20260831200044 65 271 1.0 6.0 0.00 0.15 0.15 81 1022.8
20260831194545 66 257 1.0 4.0 0.00 0.15 0.15 80 1022.5
20260831193116 66 267 2.0 7.0 0.00 0.15 0.15 79 1022.3
20260831191544 67 263 2.0 9.0 0.00 0.15 0.15 77 1022.1
20260831190048 67 244 2.0 6.0 0.00 0.15 0.15 76 1022.0
20260831184542 68 305 2.0 9.0 0.00 0.15 0.15 74 1021.9
20260831183054 69 292 2.0 8.0 0.00 0.15 0.15 73 1021.8
20260831181552 70 290 2.0 10.0 0.00 0.15 0.15 71 1021.8
20260831180043 71 277 2.0 7.0 0.00 0.15 0.15 68 1021.8
20260831174549 72 262 2.0 9.0 0.00 0.15 0.15 68 1021.6
20260831173046 72 295 4.0 11.0 0.00 0.15 0.15 66 1021.7
20260831171624 73 287 5.0 11.0 0.00 0.15 0.15 64 1021.6
20260831171542 73 287 5.0 11.0 0.00 0.15 0.15 64 1021.6
20260831170045 72 279 4.0 12.0 0.00 0.15 0.15 64 1021.7
20260831164602 73 277 5.0 11.0 0.00 0.15 0.15 61 1021.6
20260831163043 74 284 5.0 11.0 0.00 0.15 0.15 60 1021.5
20260831161601 75 238 3.0 14.0 0.00 0.15 0.15 61 1021.5
20260831160100 74 217 5.0 14.0 0.00 0.15 0.15 61 1021.6
20260831154613 74 288 4.0 11.0 0.00 0.15 0.15 60 1021.6
20260831153049 75 275 3.0 17.0 0.00 0.15 0.15 62 1021.5
20260831151550 75 275 5.0 12.0 0.00 0.15 0.15 63 1021.7
20260831150049 75 236 4.0 17.0 0.00 0.15 0.15 63 1021.5
20260831144543 75 248 5.0 15.0 0.00 0.15 0.15 62 1021.4
20260831143044 74 302 4.0 15.0 0.00 0.15 0.15 63 1021.5
20260831141551 75 271 6.0 15.0 0.00 0.15 0.15 64 1021.5
20260831140044 75 237 6.0 13.0 0.00 0.15 0.15 63 1021.4
20260831134552 74 247 6.0 13.0 0.00 0.15 0.15 66 1021.4
20260831133051 75 261 4.0 11.0 0.00 0.15 0.15 67 1021.4
20260831131557 74 308 5.0 14.0 0.00 0.15 0.15 66 1021.4
20260831130047 73 261 2.0 11.0 0.00 0.15 0.15 71 1021.2
20260831124544 74 263 4.0 12.0 0.00 0.16 0.15 70 1021.3
20260831123052 73 288 3.0 12.0 0.00 0.16 0.15 75 1021.2
20260831120043 70 272 3.0 10.0 0.04 0.16 0.15 81 1021.2
20260831114544 69 0 2.0 9.0 0.04 0.16 0.15 86 1021.2
20260831113050 68 270 1.0 7.0 0.04 0.16 0.15 88 1021.2
20260831111551 69 274 2.0 10.0 0.00 0.11 0.11 82 1021.2